GW1859 Weather Reports


time (UTC)temp
F
wind
direction
speed
knots
gust
knots
rain 1hr
in
rain 24hr
in
rain mn
in
humidity
%
barometer
mb
20260906195135 100 311 0.0 0.9 0.00 0.00 0.00 32 1015.3
20260906194631 100 323 1.7 1.7 0.00 0.00 0.00 34 1015.1
20260906194126 100 231 0.0 4.3 0.00 0.00 0.00 31 1015.1
20260906193626 100 281 1.7 1.7 0.00 0.00 0.00 32 1015.3
20260906193121 101 330 1.7 4.3 0.00 0.00 0.00 32 1015.4
20260906192617 101 259 2.6 6.1 0.00 0.00 0.00 31 1015.5
20260906192116 102 187 0.9 2.6 0.00 0.00 0.00 31 1015.2
20260906191611 102 279 2.6 5.2 0.00 0.00 0.00 30 1015.6
20260906191111 103 23 1.7 2.6 0.00 0.00 0.00 29 1015.8
20260906190611 103 241 1.7 2.6 0.00 0.00 0.00 30 1015.8
20260906190105 100 194 0.0 3.5 0.00 0.00 0.00 31 1015.7
20260906185604 100 263 2.6 5.2 0.00 0.00 0.00 31 1016.0
20260906185103 101 227 3.5 3.5 0.00 0.00 0.00 30 1015.5
20260906184558 101 295 4.3 5.2 0.00 0.00 0.00 31 1016.0
20260906184054 101 340 1.7 3.5 0.00 0.00 0.00 31 1016.0
20260906183549 102 322 0.0 2.6 0.00 0.00 0.00 31 1016.2
20260906183045 102 275 0.9 2.6 0.00 0.00 0.00 31 1016.2
20260906182540 101 291 0.0 1.7 0.00 0.00 0.00 31 1016.3
20260906182036 101 145 0.0 2.6 0.00 0.00 0.00 30 1016.5
20260906181531 101 43 0.9 1.7 0.00 0.00 0.00 31 1016.3
20260906181028 101 45 1.7 1.7 0.00 0.00 0.00 32 1016.6
20260906180522 101 118 1.7 1.7 0.00 0.00 0.00 32 1016.5
20260906180021 102 282 1.7 2.6 0.00 0.00 0.00 31 1016.6
20260906175520 103 198 2.6 5.2 0.00 0.00 0.00 30 1016.8
20260906175015 104 353 0.9 2.6 0.00 0.00 0.00 29 1017.1
20260906174513 103 321 1.7 2.6 0.00 0.00 0.00 31 1017.0
20260906174008 103 300 0.9 3.5 0.00 0.00 0.00 30 1017.1
20260906173508 102 295 0.0 2.6 0.00 0.00 0.00 31 1017.2
20260906173004 101 271 1.7 5.2 0.00 0.00 0.00 32 1017.3
20260906172459 102 200 1.7 3.5 0.00 0.00 0.00 31 1017.4
20260906171955 102 253 1.7 3.5 0.00 0.00 0.00 32 1017.5
20260906171454 102 98 2.6 2.6 0.00 0.00 0.00 30 1017.9
20260906170950 102 44 0.0 1.7 0.00 0.00 0.00 32 1017.7
20260906170446 100 210 1.7 2.6 0.00 0.00 0.00 32 1018.0
20260906165943 100 210 1.7 2.6 0.00 0.00 0.00 33 1017.8
20260906165442 99 269 3.5 5.2 0.00 0.00 0.00 34 1017.9
20260906164937 99 257 1.7 4.3 0.00 0.00 0.00 34 1017.9
20260906164436 98 273 2.6 3.5 0.00 0.00 0.00 34 1018.1
20260906163933 98 258 2.6 2.6 0.00 0.00 0.00 35 1018.0
20260906163428 98 329 1.7 4.3 0.00 0.00 0.00 36 1018.0
20260906162926 99 286 1.7 3.5 0.00 0.00 0.00 35 1018.2
20260906162425 98 281 2.6 2.6 0.00 0.00 0.00 35 1018.1
20260906161921 97 341 3.5 4.3 0.00 0.00 0.00 36 1017.9
20260906161420 97 305 3.5 4.3 0.00 0.00 0.00 36 1018.1
20260906160919 97 314 1.7 3.5 0.00 0.00 0.00 36 1018.2
20260906160418 97 337 1.7 2.6 0.00 0.00 0.00 37 1017.8
20260906155916 96 258 3.5 3.5 0.00 0.00 0.00 37 1017.9
20260906155410 95 256 2.6 3.5 0.00 0.00 0.00 38 1017.7
20260906154907 95 287 1.7 1.7 0.00 0.00 0.00 38 1017.9
20260906154401 95 272 2.6 2.6 0.00 0.00 0.00 38 1018.0
20260906153900 95 340 1.7 3.5 0.00 0.00 0.00 39 1017.8
20260906153359 94 312 0.9 5.2 0.00 0.00 0.00 39 1017.7
20260906152854 94 336 1.7 3.5 0.00 0.00 0.00 40 1017.9
20260906152354 94 275 0.9 4.3 0.00 0.00 0.00 40 1017.8
20260906151854 94 292 2.6 3.5 0.00 0.00 0.00 40 1017.7
20260906151349 93 335 1.7 3.5 0.00 0.00 0.00 40 1017.7
20260906150845 92 332 1.7 3.5 0.00 0.00 0.00 41 1017.7
20260906150340 92 289 0.9 4.3 0.00 0.00 0.00 42 1017.5
20260906145840 92 325 3.5 3.5 0.00 0.00 0.00 43 1017.9
20260906145338 91 219 0.9 2.6 0.00 0.00 0.00 43 1017.7
20260906144834 91 249 1.7 2.6 0.00 0.00 0.00 43 1017.8
20260906144328 90 264 0.0 2.6 0.00 0.00 0.00 44 1017.5
20260906143828 90 331 4.3 4.3 0.00 0.00 0.00 44 1017.6
20260906143325 89 218 0.0 1.7 0.00 0.00 0.00 46 1017.6
20260906142820 88 312 1.7 2.6 0.00 0.00 0.00 48 1017.7
20260906142315 86 294 0.9 1.7 0.00 0.00 0.00 50 1017.7
20260906141814 86 253 0.9 1.7 0.00 0.00 0.00 51 1017.8
20260906141309 85 278 0.9 1.7 0.00 0.00 0.00 52 1017.8
20260906140808 84 311 0.9 1.7 0.00 0.00 0.00 54 1017.7
20260906140303 83 224 0.0 1.7 0.00 0.00 0.00 55 1017.9
20260906135801 82 309 0.9 0.9 0.00 0.00 0.00 58 1017.9
20260906135255 81 292 0.9 1.7 0.00 0.00 0.00 59 1017.6
20260906134751 80 292 0.0 0.9 0.00 0.00 0.00 61 1017.6
20260906134246 79 334 0.9 1.7 0.00 0.00 0.00 65 1017.4
20260906133742 79 294 0.9 1.7 0.00 0.00 0.00 67 1017.5
20260906133237 78 323 0.9 1.7 0.00 0.00 0.00 68 1017.5
20260906132733 77 306 0.0 1.7 0.00 0.00 0.00 69 1017.2
20260906132228 76 346 0.0 0.9 0.00 0.00 0.00 71 1017.3
20260906131723 76 333 0.0 0.9 0.00 0.00 0.00 74 1017.5
20260906131218 75 329 0.0 1.7 0.00 0.00 0.00 74 1017.3
20260906130714 75 325 0.9 0.9 0.00 0.00 0.00 75 1017.2
20260906130209 74 321 0.0 1.7 0.00 0.00 0.00 75 1017.2
20260906125707 74 319 0.0 1.7 0.00 0.00 0.00 76 1017.1
20260906125206 73 324 0.0 1.7 0.00 0.00 0.00 76 1017.0
20260906124701 73 322 0.0 0.9 0.00 0.00 0.00 76 1016.8
20260906124156 73 319 0.0 0.9 0.00 0.00 0.00 76 1016.6
20260906123655 73 337 0.9 0.9 0.00 0.00 0.00 77 1016.8
20260906123151 73 301 0.0 0.0 0.00 0.00 0.00 77 1016.6
20260906122649 73 315 0.0 0.9 0.00 0.00 0.00 77 1016.4
20260906122145 73 309 0.0 0.0 0.00 0.00 0.00 77 1016.5
20260906121641 73 309 0.0 0.9 0.00 0.00 0.00 76 1016.4
20260906121138 72 321 0.0 0.0 0.00 0.00 0.00 76 1016.2
20260906120633 72 315 0.0 0.0 0.00 0.00 0.00 77 1016.5
20260906120131 72 326 0.0 0.0 0.00 0.00 0.00 77 1016.2
20260906115631 72 297 0.0 0.0 0.00 0.00 0.00 77 1016.3
20260906115126 72 297 0.0 0.0 0.00 0.00 0.00 78 1016.1
20260906114625 72 324 0.0 0.9 0.00 0.00 0.00 78 1016.2
20260906114120 72 322 0.0 0.0 0.00 0.00 0.00 78 1016.0
20260906113620 72 343 0.0 0.9 0.00 0.00 0.00 77 1016.0
20260906113120 72 315 0.0 0.0 0.00 0.00 0.00 77 1016.1
20260906112620 72 315 0.0 0.0 0.00 0.00 0.00 78 1016.3
20260906112117 72 322 0.0 0.9 0.00 0.00 0.00 77 1015.8
20260906111616 72 318 0.9 1.7 0.00 0.00 0.00 77 1015.9
20260906111111 72 343 0.0 0.0 0.00 0.00 0.00 77 1016.2
20260906110606 72 343 0.0 0.9 0.00 0.00 0.00 77 1015.9
20260906110106 72 309 0.0 0.9 0.00 0.00 0.00 77 1015.8
20260906105600 72 297 0.0 0.9 0.00 0.00 0.00 77 1015.7
20260906105057 73 322 0.0 0.0 0.00 0.00 0.00 77 1015.8
20260906104555 73 322 0.0 0.9 0.00 0.00 0.00 76 1015.7
20260906104050 73 339 0.0 0.9 0.00 0.00 0.00 76 1015.6
20260906103548 73 343 0.0 0.0 0.00 0.00 0.00 76 1015.8
20260906103043 73 315 0.0 0.9 0.00 0.00 0.00 76 1015.6
20260906102544 73 322 0.0 0.9 0.00 0.00 0.00 75 1015.7
20260906102039 73 322 0.9 0.9 0.00 0.00 0.00 75 1015.8
20260906101539 73 309 0.0 0.0 0.00 0.00 0.00 75 1015.9
20260906101033 73 322 0.0 0.0 0.00 0.00 0.00 75 1015.7
20260906100529 73 306 0.0 0.9 0.00 0.00 0.00 74 1016.0
20260906100030 73 322 0.0 0.0 0.00 0.00 0.00 74 1015.6
20260906095524 73 309 0.0 0.0 0.00 0.00 0.00 74 1015.9
20260906095020 74 297 0.0 0.9 0.00 0.00 0.00 74 1015.8
20260906094518 74 309 0.9 1.7 0.00 0.00 0.00 73 1016.1
20260906094014 74 334 0.9 0.9 0.00 0.00 0.00 74 1015.9
20260906093510 74 333 0.9 0.9 0.00 0.00 0.00 73 1015.7
20260906093011 74 316 0.9 1.7 0.00 0.00 0.00 73 1015.8
20260906092510 74 334 0.0 0.9 0.00 0.00 0.00 73 1015.8
20260906092006 74 327 0.0 0.9 0.00 0.00 0.00 72 1015.6
20260906091502 74 341 0.0 0.9 0.00 0.00 0.00 72 1015.5
20260906090958 74 331 0.0 0.9 0.00 0.00 0.00 72 1015.6
20260906090453 75 333 0.0 0.0 0.00 0.00 0.00 71 1015.8
20260906085953 75 320 0.0 0.9 0.00 0.00 0.00 71 1015.8
20260906085452 75 332 0.0 0.9 0.00 0.00 0.00 71 1015.6
20260906084951 75 352 0.0 0.9 0.00 0.00 0.00 71 1015.4
20260906084446 75 328 0.9 0.9 0.00 0.00 0.00 70 1015.5
20260906083945 75 326 0.0 0.9 0.00 0.00 0.00 71 1015.4
20260906083441 75 311 0.9 0.9 0.00 0.00 0.00 70 1015.5
20260906082940 75 326 0.0 0.9 0.00 0.00 0.00 70 1015.5
20260906082436 75 329 0.9 0.9 0.00 0.00 0.00 70 1015.5
20260906081931 75 336 0.9 0.9 0.00 0.00 0.00 70 1015.6
20260906081426 76 333 0.0 0.9 0.00 0.00 0.00 69 1015.3
20260906080923 76 335 0.0 0.0 0.00 0.00 0.00 69 1015.4
20260906080419 76 331 0.9 0.9 0.00 0.00 0.00 69 1015.6
20260906075918 75 329 0.0 0.9 0.00 0.00 0.00 69 1015.4
20260906075414 75 309 0.0 0.0 0.00 0.00 0.00 69 1015.6
20260906074909 75 325 0.0 0.9 0.00 0.00 0.00 69 1015.4
20260906074409 76 319 0.0 0.9 0.00 0.00 0.00 69 1015.6
20260906073908 76 316 0.9 0.9 0.00 0.00 0.00 69 1015.3
20260906073402 76 305 0.0 0.9 0.00 0.00 0.00 68 1015.3
20260906072859 76 336 0.9 0.9 0.00 0.00 0.00 68 1015.2
20260906072354 76 318 0.9 0.9 0.00 0.00 0.00 67 1015.3
20260906071850 76 323 0.0 0.9 0.00 0.00 0.00 67 1015.3
20260906071345 76 327 0.0 0.9 0.00 0.00 0.00 67 1015.4
20260906070841 76 322 0.0 0.9 0.00 0.00 0.00 66 1015.2
20260906070337 77 333 0.0 0.9 0.00 0.00 0.00 66 1015.3
20260906065832 77 321 0.9 0.9 0.00 0.00 0.00 65 1015.3
20260906065326 77 313 0.0 0.9 0.00 0.00 0.00 65 1015.2
20260906064823 77 331 0.0 0.9 0.00 0.00 0.00 65 1015.3
20260906064319 77 343 0.0 0.9 0.00 0.00 0.00 64 1015.3
20260906063818 78 329 0.0 0.9 0.00 0.00 0.00 64 1015.4
20260906063314 78 322 0.0 0.9 0.00 0.00 0.00 63 1015.3
20260906062809 78 325 0.0 0.9 0.00 0.00 0.00 63 1015.4
20260906062308 78 324 0.9 0.9 0.00 0.00 0.00 62 1015.5
20260906061804 78 333 0.0 0.9 0.00 0.00 0.00 62 1015.4
20260906061301 78 333 0.0 0.9 0.00 0.00 0.00 61 1015.3
20260906060801 78 333 0.0 0.9 0.00 0.00 0.00 61 1015.5
20260906060258 79 337 0.0 0.9 0.00 0.00 0.00 60 1015.3
20260906055754 79 341 0.0 0.9 0.00 0.00 0.00 60 1015.3
20260906055249 79 327 0.9 0.9 0.00 0.00 0.00 59 1015.2
20260906054744 80 309 0.0 0.9 0.00 0.00 0.00 58 1015.2
20260906054240 80 333 0.0 0.0 0.00 0.00 0.00 58 1015.4
20260906053736 80 333 0.0 0.0 0.00 0.00 0.00 57 1015.4
20260906053232 80 333 0.0 0.9 0.00 0.00 0.00 57 1015.5
20260906052726 81 322 0.0 0.9 0.00 0.00 0.00 56 1015.3
20260906052223 81 333 0.0 0.9 0.00 0.00 0.00 56 1015.3
20260906051720 81 336 0.0 0.9 0.00 0.00 0.00 55 1015.6
20260906051219 82 299 0.0 0.9 0.00 0.00 0.00 54 1015.2
20260906050714 82 305 0.9 0.9 0.00 0.00 0.00 54 1015.3
20260906050210 83 317 0.0 0.9 0.00 0.00 0.00 53 1015.3
20260906045708 83 326 0.9 0.9 0.00 0.00 0.00 52 1015.1
20260906045202 83 333 0.0 0.9 0.00 0.00 0.00 51 1015.3
20260906044659 84 329 0.0 0.9 0.00 0.00 0.00 51 1015.2
20260906044154 84 345 0.0 0.9 0.00 0.00 0.00 51 1015.1
20260906043650 84 333 0.0 0.9 0.00 0.00 0.00 51 1015.0
20260906043146 84 343 0.0 0.9 0.00 0.00 0.00 51 1015.1
20260906042645 84 25 0.0 0.9 0.00 0.00 0.00 51 1015.0
20260906042145 83 329 0.0 1.7 0.00 0.00 0.00 52 1015.2
20260906041641 83 311 1.7 1.7 0.00 0.00 0.00 52 1015.2
20260906041136 83 353 0.0 0.9 0.00 0.00 0.00 53 1015.2
20260906040631 83 320 0.0 1.7 0.00 0.00 0.00 52 1015.2
20260906040127 83 333 0.0 1.7 0.00 0.00 0.00 52 1015.2
20260906035622 84 342 0.9 0.9 0.00 0.00 0.00 52 1015.3
20260906035117 84 333 0.0 1.7 0.00 0.00 0.00 51 1015.1
20260906034617 84 352 0.0 0.9 0.00 0.00 0.00 51 1015.1
20260906034112 84 44 0.0 0.9 0.00 0.00 0.00 50 1015.0
20260906033608 84 321 0.0 0.9 0.00 0.00 0.00 50 1015.1
20260906033103 84 25 0.0 0.9 0.00 0.00 0.00 50 1015.1
20260906032600 85 333 0.0 0.9 0.00 0.00 0.00 50 1015.2
20260906032059 85 333 0.0 0.9 0.00 0.00 0.00 50 1015.2
20260906031555 85 320 0.0 0.9 0.00 0.00 0.00 50 1014.9
20260906031050 85 310 0.0 0.9 0.00 0.00 0.00 49 1014.9
20260906030549 86 333 0.0 0.9 0.00 0.00 0.00 49 1015.1
20260906030049 86 352 0.0 0.9 0.00 0.00 0.00 48 1014.8
20260906025549 87 293 0.0 0.9 0.00 0.00 0.00 47 1014.9
20260906025048 87 326 0.0 0.9 0.00 0.00 0.00 47 1014.9
20260906024544 87 339 0.0 1.7 0.00 0.00 0.00 47 1014.9
20260906024044 87 334 0.9 1.7 0.00 0.00 0.00 47 1014.6
20260906023540 87 27 1.7 1.7 0.00 0.00 0.00 47 1014.5
20260906023040 86 328 0.0 1.7 0.00 0.00 0.00 48 1014.6
20260906022535 86 325 1.7 1.7 0.00 0.00 0.00 48 1014.3
20260906022030 86 313 0.0 0.9 0.00 0.00 0.00 49 1014.5
20260906021526 85 25 0.0 0.9 0.00 0.00 0.00 49 1014.5
20260906021025 85 306 0.0 0.9 0.00 0.00 0.00 50 1014.2
20260906020525 85 326 0.0 0.0 0.00 0.00 0.00 50 1014.2
20260906020024 86 299 0.0 0.9 0.00 0.00 0.00 49 1014.2
20260906015524 86 310 0.0 0.9 0.00 0.00 0.00 49 1014.6
20260906015024 86 343 0.0 0.0 0.00 0.00 0.00 49 1014.2
20260906014519 86 307 0.0 0.9 0.00 0.00 0.00 48 1014.3
20260906014015 87 331 0.0 0.9 0.00 0.00 0.00 48 1014.1
20260906013509 87 329 0.9 1.7 0.00 0.00 0.00 47 1014.1
20260906013005 88 304 0.9 1.7 0.00 0.00 0.00 46 1013.9
20260906012500 88 312 0.9 0.9 0.00 0.00 0.00 45 1013.8
20260906011959 89 316 0.9 1.7 0.00 0.00 0.00 44 1013.7
20260906011455 89 304 0.9 0.9 0.00 0.00 0.00 44 1013.5
20260906010950 90 335 0.9 0.9 0.00 0.00 0.00 43 1013.9
20260906010446 90 331 0.9 1.7 0.00 0.00 0.00 42 1013.4
20260906005942 91 336 0.0 0.9 0.00 0.00 0.00 42 1013.7
20260906005441 91 322 0.0 0.9 0.00 0.00 0.00 41 1013.5
20260906004940 92 55 0.0 1.7 0.00 0.00 0.00 40 1013.5
20260906004440 92 318 0.9 0.9 0.00 0.00 0.00 40 1013.5
20260906003936 93 22 0.0 0.9 0.00 0.00 0.00 39 1013.5
20260906003435 93 12 0.0 0.9 0.00 0.00 0.00 39 1013.3
20260906002931 94 322 0.0 0.9 0.00 0.00 0.00 38 1013.4
20260906002430 94 354 0.0 0.9 0.00 0.00 0.00 38 1013.4
20260906001926 94 325 0.0 0.9 0.00 0.00 0.00 37 1013.7
20260906001422 95 322 0.9 1.7 0.00 0.00 0.00 37 1013.7
20260906000917 96 337 0.0 1.7 0.00 0.00 0.00 37 1013.6
20260906000412 96 309 0.0 0.9 0.00 0.00 0.00 36 1013.5
20260905235907 96 300 0.9 0.9 0.00 0.00 0.00 36 1013.6
20260905235401 97 297 0.0 0.0 0.00 0.00 0.00 35 1013.6
20260905234856 97 44 0.0 0.9 0.00 0.00 0.00 34 1013.7
20260905234351 98 63 0.0 1.7 0.00 0.00 0.00 32 1013.5
20260905233846 100 328 0.0 1.7 0.00 0.00 0.00 31 1013.5
20260905233341 101 321 0.0 1.7 0.00 0.00 0.00 29 1013.8
20260905232840 102 245 0.9 0.9 0.00 0.00 0.00 29 1013.6
20260905232337 103 0 0.0 3.5 0.00 0.00 0.00 30 1013.5
20260905231832 104 297 0.0 1.7 0.00 0.00 0.00 28 1013.8
20260905231327 103 45 0.9 2.6 0.00 0.00 0.00 28 1013.8
20260905230823 104 191 0.0 2.6 0.00 0.00 0.00 28 1013.5
20260905230321 104 251 0.0 2.6 0.00 0.00 0.00 28 1013.7
20260905225821 104 71 0.9 2.6 0.00 0.00 0.00 27 1013.5
20260905225316 105 234 1.7 1.7 0.00 0.00 0.00 27 1013.7
20260905224816 104 21 0.9 1.7 0.00 0.00 0.00 26 1013.5
20260905224311 104 328 1.7 4.3 0.00 0.00 0.00 28 1013.6
20260905223806 105 225 0.0 2.6 0.00 0.00 0.00 27 1013.6
20260905223304 105 219 0.0 1.7 0.00 0.00 0.00 26 1013.5
20260905222759 105 0 0.0 1.7 0.00 0.00 0.00 27 1013.4
20260905222258 105 144 2.6 4.3 0.00 0.00 0.00 27 1013.4
20260905221754 105 198 0.0 3.5 0.00 0.00 0.00 26 1013.4
20260905221250 105 254 3.5 3.5 0.00 0.00 0.00 27 1013.4
20260905220746 106 242 0.0 2.6 0.00 0.00 0.00 26 1013.5
20260905220242 106 109 0.9 2.6 0.00 0.00 0.00 26 1013.4
20260905215741 107 52 1.7 2.6 0.00 0.00 0.00 26 1013.3
20260905215237 107 173 0.9 1.7 0.00 0.00 0.00 27 1013.4
20260905214733 106 186 0.0 7.0 0.00 0.00 0.00 27 1013.4
20260905214228 105 279 0.0 1.7 0.00 0.00 0.00 28 1013.4
20260905213723 105 5 0.0 1.7 0.00 0.00 0.00 28 1013.4
20260905213220 105 19 0.9 3.5 0.00 0.00 0.00 28 1013.5
20260905212715 106 9 1.7 2.6 0.00 0.00 0.00 28 1013.4
20260905212214 105 154 0.9 2.6 0.00 0.00 0.00 29 1013.5
20260905211713 105 336 0.9 2.6 0.00 0.00 0.00 29 1013.4
20260905211209 104 282 1.7 1.7 0.00 0.00 0.00 30 1013.6
20260905210706 103 105 1.7 2.6 0.00 0.00 0.00 30 1013.7
20260905210205 105 98 0.0 2.6 0.00 0.00 0.00 29 1013.8
20260905205705 106 62 0.0 1.7 0.00 0.00 0.00 29 1013.8
20260905205205 105 331 0.9 1.7 0.00 0.00 0.00 30 1013.8
20260905204705 105 304 0.0 2.6 0.00 0.00 0.00 30 1014.0
20260905204200 105 333 0.9 2.6 0.00 0.00 0.00 29 1014.0
20260905203654 105 95 0.0 1.7 0.00 0.00 0.00 30 1014.0
20260905203150 104 226 2.6 3.5 0.00 0.00 0.00 30 1014.3
20260905202645 104 71 0.0 3.5 0.00 0.00 0.00 31 1014.6
20260905202140 104 158 0.0 1.7 0.00 0.00 0.00 31 1014.5
20260905201636 105 76 0.9 1.7 0.00 0.00 0.00 31 1014.6
20260905201136 105 104 0.9 3.5 0.00 0.00 0.00 31 1014.6
20260905200631 105 353 1.7 4.3 0.00 0.00 0.00 31 1014.6
20260905200127 105 66 2.6 3.5 0.00 0.00 0.00 30 1014.9